Flag for U.S.A. Weather past 2 weeks in Stroudsburg, Pennsylvania, U.S.A.

Now
73 °F

Sunny.


Feels Like: 77 °F
Forecast: 64 / 86 °F
Wind: 14 mph from Southwest

Location: Pocono Mountains Municipal Airport

Current Time: May 25, 2015 at 8:39:18 PM

Latest Report: May 25, 2015 at 7:53 PM


Visibility: 9 mi

Pressure: 30.16 "Hg

Humidity: 55%

Dew point: 56 °F

Location of StroudsburgLocation

Historic Weather in Stroudsburg — Graph

°F

Stroudsburg temperature yesterday

Maximum temperature yesterday: 74 °F (at 2:53 PM)
Minimum temperature yesterday: 43 °F (at 5:53 AM)
Average temperature yesterday: 61 °F

Past Weeks' High & Low Weather Summary

 TemperatureHumidityPressure
High82 °F (May 25, 3:53 PM)97% (May 18, 6:53 PM)30.43 "Hg (May 18, 6:53 PM)
Low34 °F (May 23, 5:53 AM)18% (May 24, 2:53 PM)29.79 "Hg (May 19, 6:53 PM)
Average59 °F62%30.12 "Hg
* Reported May 10 6:53 PM — May 25 6:53 PM, Stroudsburg, Weather by CustomWeather, © 2015

Note: Actual official high and low records may vary slightly from our data, if they occured in-between our weather recording intervals... More about our weather records

Advertising

Stroudsburg weather history for previous 24 hours

 ConditionsComfort  
Time TempWeatherWind HumidityBarometerVisibility
6:53 PM
Mon, May 25
77 °FSunny.15 mph47%30.17 "Hg7 mi
5:53 PM79 °FSunny.13 mph38%30.16 "Hg9 mi
4:53 PM81 °FSunny.18 mph30%30.17 "Hg10 mi
3:53 PM82 °FSunny.18 mph32%30.17 "Hg10 mi
2:53 PM81 °FSunny.18 mph32%30.19 "Hg10 mi
1:53 PM80 °FSunny.14 mph38%30.20 "Hg10 mi
12:53 PM79 °FScattered clouds.13 mph41%30.22 "Hg10 mi
11:53 AM77 °FScattered clouds.14 mph42%30.24 "Hg10 mi
10:53 AM75 °FPartly sunny.13 mph45%30.24 "Hg10 mi
9:53 AM72 °FSunny.9 mph52%30.26 "Hg10 mi
8:53 AM67 °FOvercast.9 mph63%30.27 "Hg10 mi
7:53 AM65 °FOvercast.6 mph68%30.26 "Hg10 mi
6:53 AM63 °FPartly sunny.No wind70%30.25 "Hg10 mi
5:53 AM62 °FPassing clouds.No wind67%30.24 "Hg10 mi
4:53 AM61 °FPassing clouds.5 mph67%30.25 "Hg10 mi
3:53 AM61 °FClear.5 mph60%30.25 "Hg10 mi
2:53 AM62 °FClear.5 mph56%30.24 "Hg10 mi
1:53 AM62 °FClear.5 mph50%30.24 "Hg10 mi
12:53 AM61 °FClear.5 mph50%30.26 "Hg10 mi
11:53 PM
Sun, May 24
61 °FClear.5 mph50%30.26 "Hg10 mi
10:53 PM60 °FClear.3 mph56%30.27 "Hg10 mi
9:53 PM58 °FClear.5 mph58%30.29 "Hg10 mi
8:53 PM61 °FSunny.No wind52%30.26 "Hg10 mi
Weather by CustomWeather, © 2015

See weather overviewHow to use our weather pages